Regional Weather Roundup
Issued by NWS Midland/Odessa, TX

Home | Current Version | Previous Version | Text Only | Print | Product List | Glossary On
Versions: 1 2 3 4 5 6 7 8 9 10 11 12 13 14 15 16 17 18 19 20 21 22 23 24 25 26 27 28 29 30 31 32 33 34 35 36 37 38 39 40 41 42 43 44 45 46 47 48 49 50
000
ASUS44 KMAF 281110
RWRMAF
MIDLAND AREA WEATHER ROUNDUP
NATIONAL WEATHER SERVICE MIDLAND TX
600 AM CDT SUN MAY 28 2017

...IN SOUTHWEST TEXAS AND SOUTHEAST NEW MEXICO...

CITY           SKY/WX    TMP DP  RH WIND       PRES   REMARKS
ALPINE         CLEAR     64  46  51 SW5       30.08S
ANDREWS        FAIR      60  48  63 NE18      30.06R
ARTESIA        PTCLDY    59  43  55 NW13      30.19R
BIG SPRING     CLEAR     65  52  61 N17       30.03R
CARLSBAD       PTCLDY    62  46  55 NW22G31   30.14R
DRYDEN           N/A     76  70  82 N8        29.85R
FORT STOCKTON  CLOUDY    73  61  65 CALM      29.94R
GUAD PASS      CLOUDY    58  40  51 E44       30.09F
HOBBS          CLEAR     57  45  62 N17G28    30.11R
MARFA          CLEAR     60  31  33 N3        30.07S
MIDLAND AIRPK  CLEAR     67  52  58 NE20G28   30.03R
MIDLAND INTL   CLEAR     68  54  60 NE24G33   30.00R
ODESSA         CLEAR     67  54  63 NE16G32   30.02R
PECOS          CLOUDY    70  52  52 N22G29    29.98R
PRESIDIO       FAIR      82  34  18 SE5       29.92R
SEMINOLE       CLEAR     60  47  62 NE16G23   30.09R
SNYDER         CLEAR     63  52  67 N15G24    30.03R
WINK           CLOUDY    66  51  58 N22G32    29.99R
$$
...OTHER STATIONS IN TEXAS...

CITY           SKY/WX    TMP DP  RH WIND       PRES   REMARKS
ABILENE        CLEAR     72  61  68 N20       29.96R
AMARILLO       CLEAR     51  46  83 N13       30.15R
AUSTIN         CLOUDY    76  73  91 S5        29.84R
BROWNSVILLE    PTCLDY    82  78  88 S12       29.81F
CORPUS CHRISTI MOCLDY    78  78 100 S10       29.78R
DALLAS FTW     CLOUDY    74  68  81 NE8       29.84R
DEL RIO        CLEAR     78  73  84 E9        29.78R
EL PASO        CLOUDY    67  15  13 S3        30.02R
HOUSTON INT    PTCLDY    79  74  84 S5        29.84R
LUBBOCK        PTCLDY    57  45  64 N12       30.11R
SAN ANGELO     PTCLDY    75  61  61 NE22G35   29.92R
SAN ANTONIO    MOCLDY    74  71  91 CALM      29.85R
WACO           CLEAR     74  72  93 S13       29.81R
WICHITA FALLS  NOT AVBL
$$
...OTHER LOCATIONS IN NEW MEXICO...

CITY           SKY/WX    TMP DP  RH WIND       PRES   REMARKS
ALAMOGORDO     PTCLDY    57   9  14 S7        30.05R
ALBUQUERQUE    PTCLDY    60  27  28 CALM      30.19R
CANNON AFB     CLEAR     52  42  69 NE14      30.18R
CLOVIS         CLEAR     52  39  62 N14       30.18R
HOLLOMAN AFB   CLOUDY    58  10  14 E9        30.07R
ROSWELL        PTCLDY    58  41  53 NW6       30.20R
RUIDOSO        PTCLDY    45  37  76 S9        30.32R WCI  40
SANTA FE       PTCLDY    47  40  76 SE6       30.25R
TRUTH OR CONSE LGT RAIN  60  40  47 N17G29    30.11R
TUCUMCARI      CLEAR     50  41  71 N8        30.17R
$$




USA.gov is the U.S. government's official web portal to all federal, state and local government web resources and services.